Location: Newark
(25.1987°N, 100.3705°W)
Time: 11:36:35
(UTC+00:00)

Hubble Space Telescope - Visible Passes

Search period start: 30 July 2021 00:00
Search period end: 09 August 2021 00:00
Orbit: 535 x 539 km, 28.5° (Epoch: 29 July)

Date Brightness Start Highest point End Pass type
(mag) Time Alt. Az. Time Alt. Az. Time Alt. Az.
30 Jul 1.3 02:07:02 10° WNW 02:11:05 54° N 02:15:07 10° E visible
30 Jul 2.5 03:48:15 10° WNW 03:50:25 30° W 03:50:25 30° W visible
31 Jul 1.2 01:56:05 10° WNW 02:00:09 57° N 02:04:13 10° E visible
31 Jul 2.1 03:37:18 10° W 03:39:53 36° W 03:39:53 36° W visible
01 Aug 1.1 01:45:09 10° WNW 01:49:14 62° N 01:53:18 10° E visible
01 Aug 1.7 03:26:23 10° W 03:29:22 41° WSW 03:29:22 41° WSW visible
02 Aug 1.6 03:15:29 10° W 03:18:51 40° SW 03:18:51 40° SW visible
03 Aug 1.8 03:04:38 10° W 03:08:22 33° SSW 03:08:22 33° SSW visible
04 Aug 2.1 02:53:52 10° W 02:57:20 26° SSW 02:57:56 25° S visible
05 Aug 2.5 02:43:13 10° WSW 02:46:18 20° SSW 02:47:33 18° S visible
06 Aug 3.0 02:32:44 10° WSW 02:35:14 16° SSW 02:37:12 12° S visible
07 Aug 3.2 02:22:40 10° SW 02:24:11 12° SSW 02:25:42 10° S visible
